Total_Precipitation_Accumulation
2.31 2.24 2.22 2.13 2.10 2.13 2.28 2.53 2.80 2.58 1.98 1.53 1.41 1.35 1.32 1.32 1.42 1.31 1.19 1.35 1.34 1.34 1.43 1.51 1.50 1.53 1.58 1.70 1.91 2.08 2.19 2.25 2.29 2.32 2.35 2.38 2.54 2.82
2.16 2.10 2.02 1.97 2.01 2.06 2.15 2.25 2.45 2.58 2.23 1.58 1.36 1.32 1.39 1.39 1.47 1.31 1.23 1.40 1.31 1.26 1.27 1.32 1.38 1.41 1.41 1.45 1.52 1.63 1.78 1.88 1.96 2.11 2.28 2.38 2.44 2.56
2.10 2.04 1.89 1.79 1.86 1.90 1.94 2.00 2.06 2.19 2.15 1.60 1.35 1.33 1.38 1.35 1.35 1.25 1.16 1.14 1.10 1.18 1.13 1.14 1.20 1.26 1.29 1.33 1.40 1.48 1.54 1.63 1.78 1.92 2.07 2.21 2.32 2.33
1.86 1.91 1.86 1.75 1.74 1.77 1.84 1.80 1.75 1.75 1.86 1.69 1.36 1.28 1.24 1.17 1.18 1.20 1.13 1.08 1.01 1.14 1.12 1.10 1.16 1.19 1.19 1.21 1.24 1.32 1.39 1.46 1.57 1.71 1.81 1.88 2.01 2.15
1.64 1.72 1.76 1.79 1.77 1.73 1.73 1.71 1.66 1.64 1.70 1.75 1.47 1.27 1.23 1.15 1.15 1.14 1.10 1.07 1.00 1.09 1.15 1.13 1.12 1.15 1.15 1.16 1.19 1.21 1.24 1.31 1.41 1.54 1.70 1.80 1.88 1.98
1.56 1.62 1.65 1.65 1.60 1.56 1.60 1.56 1.58 1.65 1.66 1.73 1.64 1.46 1.34 1.23 1.25 1.27 1.24 1.11 1.05 1.02 1.15 1.16 1.17 1.15 1.13 1.11 1.08 1.08 1.10 1.20 1.37 1.56 1.73 1.85 1.89 1.93
1.61 1.57 1.59 1.65 1.58 1.53 1.54 1.55 1.59 1.69 1.76 1.81 1.71 1.53 1.40 1.34 1.27 1.16 1.21 1.20 1.14 1.04 1.08 1.07 1.11 1.14 1.13 1.16 1.18 1.18 1.22 1.31 1.46 1.64 1.79 1.90 1.95 2.01
1.58 1.46 1.47 1.58 1.57 1.59 1.57 1.56 1.64 1.79 1.88 1.90 1.77 1.54 1.27 1.18 1.22 1.35 1.46 1.62 1.57 1.13 1.13 1.22 1.25 1.35 1.29 1.24 1.36 1.38 1.38 1.46 1.53 1.61 1.72 1.82 1.88 1.93
1.46 1.37 1.33 1.32 1.42 1.33 1.40 1.48 1.50 1.61 1.70 1.72 1.66 1.35 1.18 1.14 1.38 1.62 1.64 1.66 1.48 1.24 1.40 1.58 1.44 1.39 1.26 1.30 1.49 1.40 1.37 1.39 1.44 1.51 1.56 1.63 1.70 1.76
1.37 1.26 1.23 1.20 1.24 1.35 1.45 1.53 1.42 1.33 1.30 1.25 1.23 1.17 1.15 1.24 1.52 1.82 1.97 2.03 1.76 1.51 1.52 1.69 1.44 1.30 1.19 1.23 1.43 1.38 1.31 1.34 1.40 1.47 1.52 1.57 1.60 1.62
1.40 1.32 1.27 1.20 1.33 1.55 1.64 1.65 1.47 1.27 1.24 1.27 1.33 1.34 1.42 1.51 1.63 1.97 2.25 2.41 2.16 1.62 1.38 1.46 1.35 1.29 1.26 1.24 1.34 1.49 1.41 1.37 1.41 1.46 1.47 1.50 1.57 1.65
1.45 1.39 1.46 1.38 1.49 1.63 1.60 1.63 1.53 1.28 1.19 1.18 1.21 1.24 1.18 1.22 1.45 1.63 2.09 2.59 2.30 1.83 1.31 1.35 1.40 1.57 1.84 1.39 1.22 1.31 1.39 1.44 1.43 1.43 1.47 1.51 1.57 1.56
1.56 1.45 1.41 1.61 1.68 1.71 1.61 1.42 1.42 1.46 1.36 1.28 1.25 1.24 1.22 1.20 1.21 1.24 1.53 2.28 2.66 2.11 1.34 1.70 1.95 1.71 1.93 1.57 1.28 1.26 1.32 1.42 1.50 1.51 1.55 1.59 1.62 1.69
1.50 1.35 1.38 1.65 1.66 1.62 1.51 1.51 1.62 1.57 1.40 1.43 1.43 1.38 1.32 1.28 1.26 1.27 1.32 1.51 1.86 2.00 1.62 1.92 2.40 1.98 2.11 1.82 1.41 1.34 1.37 1.51 1.67 1.68 1.63 1.78 1.76 1.79
1.47 1.53 1.56 1.60 1.55 1.50 1.56 1.57 1.52 1.43 1.50 1.62 1.52 1.37 1.28 1.29 1.33 1.40 1.43 1.43 1.52 1.56 1.55 1.64 1.96 1.98 2.20 2.16 1.69 1.48 1.59 1.66 1.78 1.97 1.95 1.85 1.73 1.74
1.58 1.61 1.57 1.52 1.51 1.52 1.60 1.58 1.45 1.46 1.63 1.67 1.53 1.41 1.38 1.44 1.47 1.52 1.70 1.73 1.85 1.77 1.62 1.55 1.63 1.92 2.06 1.74 1.79 1.75 1.72 2.01 2.03 2.19 2.18 1.96 1.76 1.63
1.67 1.57 1.50 1.48 1.50 1.47 1.42 1.42 1.46 1.56 1.65 1.57 1.59 1.60 1.60 1.69 1.74 1.78 1.95 2.05 2.10 1.85 1.66 1.54 1.52 1.62 1.76 1.82 1.87 1.72 1.74 1.97 2.15 2.26 2.30 2.20 1.97 1.76
1.69 1.60 1.50 1.42 1.40 1.40 1.38 1.38 1.41 1.48 1.59 1.71 1.76 1.77 1.81 1.90 1.98 2.01 2.15 2.27 2.15 1.81 1.58 1.46 1.51 1.70 1.78 1.74 1.73 1.77 1.83 2.01 2.14 2.14 2.05 2.11 2.07 1.80
1.52 1.46 1.41 1.36 1.33 1.32 1.36 1.41 1.43 1.42 1.58 1.82 1.96 2.00 2.06 2.11 2.18 2.24 2.25 2.25 2.07 1.79 1.59 1.48 1.62 2.06 2.19 1.70 1.38 1.52 1.93 2.07 2.02 2.03 1.88 1.80 1.87 1.69
1.37 1.34 1.32 1.30 1.33 1.37 1.42 1.50 1.56 1.57 1.69 1.87 1.98 2.04 2.16 2.31 2.35 2.27 2.16 2.10 2.00 1.79 1.59 1.45 1.52 1.95 2.46 2.17 1.80 1.57 1.67 1.95 2.11 2.10 1.81 1.63 1.65 1.65
1.32 1.29 1.27 1.31 1.39 1.45 1.49 1.56 1.68 1.81 1.89 2.06 2.12 2.12 2.19 2.41 2.41 2.18 2.03 1.95 1.89 1.74 1.58 1.34 1.28 1.52 1.89 2.20 2.10 1.72 1.72 1.83 1.95 2.21 2.13 2.07 1.90 1.68
1.36 1.36 1.34 1.36 1.45 1.53 1.58 1.68 1.81 1.87 1.96 2.09 2.14 2.16 2.21 2.33 2.30 2.04 1.88 1.86 1.76 1.63 1.51 1.35 1.29 1.44 1.80 2.23 2.02 1.62 1.60 1.64 1.65 1.65 1.84 2.20 2.65 2.62
1.44 1.48 1.48 1.49 1.53 1.61 1.69 1.74 1.85 1.91 1.98 2.14 2.17 2.12 2.11 2.08 1.90 1.83 1.78 1.77 1.79 1.70 1.63 1.60 1.54 1.57 1.68 1.78 1.86 1.69 1.52 1.47 1.45 1.58 1.81 1.76 1.75 1.90